Create Custom Reports and Graphics: Custom Report

Siberia 8700'

OV

1/23/22 5:00 AM (-08:00)
Updated Every 15 Minutes
Temp 21.5 °F   6.7
RH 76 %   16
Wet Bulb 19.4 °F   5.2
Dew Pt 15.1 °F   2.3
Wind Dir E | 86 °
Wind Spd 33.2 mph   22.5
Wind Gust 41.1 mph   34.8
WindChill 3.1 °F   14.1
Daily Min Temp 19.6 °F   5.0
Daily Max Temp 23.5 °F   4.6

Last 24 Hours

OV-Siberia 8700'

Hourly Data | America/Los_Angeles
as of 1/23/22 5:03 AM PST
Date & Time Temp (°F) RH (%) Dew Pt (°F) Wet Bulb (°F) Wind Dir (°) Wind Spd (mph) Wind Gust (mph) WindChill (°F) Daily Min Temp (°F) Daily Max Temp (°F)
1/23/22 - 0500 21.5 76 15.1 19.4 E | 88 35.6 50.7 2.7 19.6 23.5
1/23/22 - 0400 20.9 84 16.9 19.6 ENE | 78 39.2 48.9 -0.4 19.6 23.5
1/23/22 - 0300 20.7 88 17.8 19.7 ENE | 77 41.2 51.8 -0.3 19.9 23.5
1/23/22 - 0200 20.6 85 16.9 19.3 ENE | 78 40.4 55.4 0.9 20.1 23.5
1/23/22 - 0100 22.3 72 14.8 19.8 E | 86 38.4 55.4 2.8 20.5 23.5
1/23/22 - 0000 21.0 83 16.5 19.4 E | 84 38.0 56.2 1.1 14.3 27.4
1/22/22 - 2300 21.1 80 15.9 19.3 E | 84 45.4 70.5 0.9 14.3 27.4
1/22/22 - 2200 21.0 75 14.5 18.9 E | 81 52.8 76.2 -1.8 14.3 27.4
1/22/22 - 2100 20.8 79 15.5 19.1 E | 84 51.7 73.1 -1.1 14.3 27.4
1/22/22 - 2000 21.2 78 15.3 19.2 E | 80 55.1 74.5 -1.4 14.3 27.4
1/22/22 - 1900 21.6 73 14.2 19.2 E | 84 54.0 73.4 -1.1 14.3 27.4
1/22/22 - 1800 22.1 76 15.7 19.9 E | 85 56.6 80.0 -0.5 14.3 27.4
1/22/22 - 1700 22.6 77 16.5 20.5 E | 84 53.4 74.5 1.4 14.3 27.4
1/22/22 - 1600 24.5 72 16.8 21.8 E | 81 58.0 83.1 4.9 14.3 27.4
1/22/22 - 1500 25.7 66 15.9 22.2 E | 81 55.7 81.9 2.1 14.3 25.9
1/22/22 - 1400 22.9 75 16.1 20.6 E | 84 59.5 87.3 -0.7 14.3 23.3
1/22/22 - 1300 21.6 81 16.6 19.9 E | 80 54.3 81.3 -0.9 14.3 22.3
1/22/22 - 1200 21.3 81 16.3 19.6 E | 80 55.4 78.2 -2.9 14.3 21.3
1/22/22 - 1100 20.0 83 15.7 18.5 E | 85 52.2 77.0 -3.5 14.3 20.4
1/22/22 - 1000 18.9 83 14.5 17.5 E | 81 56.1 75.2 -6.3 14.3 19.0
1/22/22 - 0900 17.4 83 13.2 16.1 E | 80 56.1 81.9 -8.9 14.3 18.9
1/22/22 - 0800 15.1 91 12.9 14.4 E | 86 51.9 75.6 -9.7 14.3 18.9
1/22/22 - 0700 14.4 94 13.0 14.0 E | 84 54.0 74.3 -11.1 14.3 18.9
1/22/22 - 0600 14.4 92 12.5 13.8 E | 81 57.3 82.0 -10.8 14.4 18.9
1/22/22 - 0500 14.8 92 12.8 14.2 ENE | 78 56.9 80.5 -10.9 14.6 18.9
Max 25.7 94 17.8 22.2 - 59.5 87.3 4.9 20.5 27.4
Avg 20.3 81 15.3 18.6 - 50.8 72.0 -2.2 - -
Min 14.4 66 12.5 13.8 - 35.6 48.9 -11.1 14.3 18.9

Last 30 Days

OV-Siberia 8700'

Daily Data | America/Los_Angeles
as of 1/23/22 5:03 AM PST
Date Daily Max Temp (°F) Time of Max Temp Daily Min Temp (°F) Time of Min Temp Wind Spd (mph) Daily Max Wind (mph) Time of Max Wind Max Wind Dir (°) Wet Bulb (°F) WetB Hrs <28F (hrs)
1/22/22 27.4 1514 14.3 0659 54.3 92.0 0248 ENE | 73 17.9 24.0
1/21/22 32.3 0132 16.1 0830 47.0 93.6 1928 NE | 56 18.5 24.0
1/20/22 44.7 1042 26.6 0016 17.5 41.7 0042 E | 92 29.6 8.0
1/19/22 30.7 1406 23.3 0734 22.6 43.0 2334 E | 98 23.7 24.0
1/18/22 39.0 1146 27.3 0056 4.8 21.2 0121 WNW | 296 27.0 14.8
1/17/22 35.8 1327 28.4 1903 18.6 31.9 1128 SW | 228 26.8 16.1
1/16/22 43.8 0052 32.6 2356 16.9 41.0 1258 ESE | 113 27.5 16.0
1/15/22 47.0 1645 27.9 0127 5.4 24.1 0224 SSE | 155 26.9 20.4
1/14/22 36.6 0031 21.7 0524 32.9 66.6 1059 ENE | 74 23.5 24.0
1/13/22 37.7 0031 32.0 1659 36.8 82.3 1047 SW | 224 25.5 24.0
1/12/22 51.3 1108 34.8 2359 14.0 51.0 2246 SSW | 206 32.9 2.8
1/11/22 45.2 1147 33.4 0001 13.1 29.7 1952 E | 100 29.5 7.7
1/10/22 39.2 1235 25.0 0431 17.4 51.5 0027 SE | 127 25.0 18.2
1/9/22 36.5 1324 20.9 0001 17.7 45.9 0528 ESE | 115 22.2 24.0
1/8/22 24.9 1416 15.7 0141 19.1 49.5 1913 E | 92 18.9 24.0
1/7/22 28.8 0007 19.2 2359 39.7 96.8 0233 W | 261 24.1 22.7
1/6/22 36.4 1406 28.7 2319 34.2 78.6 2246 SSW | 193 32.3 0.0
1/5/22 36.7 1949 25.2 0149 18.9 54.4 0019 W | 265 30.7 4.8
1/4/22 27.9 2121 25.0 1735 48.0 127.6 0014 WSW | 257 25.8 24.0
1/3/22 25.6 2325 16.8 0306 64.6 134.0 2105 WSW | 248 17.4 24.0
1/2/22 23.5 1424 17.4 0856 46.6 97.8 2344 SW | 228 17.3 24.0
1/1/22 25.8 1844 3.9 0126 17.1 39.9 0547 ENE | 59 14.7 24.0
12/31/21 23.3 1240 5.4 2358 24.1 68.8 0322 WSW | 237 14.4 24.0
12/30/21 23.7 1153 15.7 0609 28.9 79.6 1254 SW | 220 18.5 24.0
12/29/21 21.3 1251 15.1 0001 28.2 75.9 0924 SE | 137 17.4 24.0
12/28/21 16.8 1323 9.3 0750 31.6 73.3 0238 SSW | 210 12.7 24.0
12/27/21 13.5 0413 9.5 2012 59.0 128.2 0431 SSW | 202 11.8 24.0
12/26/21 11.9 2358 6.5 0755 60.1 121.3 0221 WSW | 244 9.3 24.0
12/25/21 18.5 1456 11.5 2345 65.3 120.6 1114 SW | 225 15.9 24.0
12/24/21 23.4 0621 15.2 1558 55.3 111.5 1105 WSW | 250 19.8 24.0
Max 51.3 - 34.8 - 65.3 134.0 - - 32.9 24.0
Avg - - - - 32.0 - - - 21.9 -
Min 11.9 - 3.9 - 4.8 21.2 - - 9.3 0.0
Calm: 0.0%
Calm: 0.0%